McCall, ID

12:39 AM MDT on May 30, 2017 (GMT -0600)
McCall

Weather History for KMYL - August, 2013

Change the Weather History Date:

Saturday, August 3, 2013

  Actual Average Record
Temperature  
Mean Temperature 59 °F 62 °F  
Max Temperature 77 °F 80 °F 94 °F (1961)
Min Temperature 40 °F 43 °F 30 °F (1989)
Degree Days  
Heating Degree Days 6 4  
Month to date heating degree days 20 12  
Since 1 June heating degree days 300 529  
Since 1 July heating degree days 37 162  
Cooling Degree Days 0 1  
Month to date cooling degree days 0 3  
Year to date cooling degree days 123 19  
Since 1 June cooling degree days 123 19  
Growing Degree Days 7 (Base 50)    
Moisture  
Dew Point 36 °F    
Average Humidity 53    
Maximum Humidity 92    
Minimum Humidity 14    
Precipitation  
Precipitation 0.00 in 0.01 in 1.31 in (1953)
Month to date precipitation 0.01 0.04  
Year to date precipitation 11.26 12.40  
Sea Level Pressure  
Sea Level Pressure 30.05 in    
Wind  
Wind Speed 4 mph (WSW)    
Max Wind Speed 13 mph    
Max Gust Speed 18 mph    
Visibility 10 miles    
Events      
T = Trace of Precipitation, MM = Missing Value Source: NWS Daily Summary

Daily Weather History Graph

Daily Weather History Graph

Search for Another Location

Airport or City:

Trip Planner

Search our weather history database for the weather conditions in past years. The results will help you decide how hot, cold, wet, or windy it might be!

Date:

Astronomy

Aug. 03, 2013 Rise Set
Actual Time 6:32 AM MDT 9:07 PM MDT
Civil Twilight 5:59 AM MDT 9:40 PM MDT
Nautical Twilight 5:17 AM MDT 10:22 PM MDT
Astronomical Twilight 4:29 AM MDT 11:10 PM MDT
Moon 3:44 AM MDT (8/3) 6:54 PM MDT (8/3)
Length of Visible Light 15h 41m
Length of Day
14h 34m
Waning Crescent, 9% of the Moon is Illuminated
Aug 3
Waning Crescent
Aug 6
New
Aug 14
First Quarter
Aug 20
Full
Aug 28
Last Quarter

Hourly Weather History & Observations

Time (MDT) Temp. Windchill Dew Point Humidity Pressure Visibility Wind Dir Wind Speed Gust Speed Precip Events Conditions
12:51 AM 48.9 °F - 42.1 °F 77% 30.06 in 10.0 mi Calm Calm - N/A   Clear
1:51 AM 55.0 °F - 41.0 °F 59% 30.01 in 10.0 mi NNE 6.9 mph - N/A   Clear
2:51 AM 45.0 °F - 39.0 °F 80% 30.04 in 10.0 mi Calm Calm - N/A   Clear
3:51 AM 44.1 °F - 37.9 °F 79% 30.06 in 10.0 mi Calm Calm - N/A   Clear
4:51 AM 42.1 °F 40.2 °F 37.0 °F 82% 30.06 in 10.0 mi East 3.5 mph - N/A   Clear
5:51 AM 39.9 °F - 37.0 °F 89% 30.07 in 10.0 mi Calm Calm - N/A   Clear
6:51 AM 42.1 °F - 37.9 °F 85% 30.09 in 10.0 mi Calm Calm - N/A   Clear
7:51 AM 45.0 °F - 39.9 °F 82% 30.10 in 10.0 mi Calm Calm - N/A   Clear
8:51 AM 51.1 °F - 41.0 °F 68% 30.09 in 10.0 mi Calm Calm - N/A   Clear
9:51 AM 55.9 °F - 44.1 °F 64% 30.10 in 10.0 mi Calm Calm - N/A   Clear
10:51 AM 62.1 °F - 42.1 °F 48% 30.08 in 10.0 mi SW 3.5 mph - N/A   Clear
11:51 AM 66.9 °F - 39.0 °F 36% 30.06 in 10.0 mi Variable 5.8 mph - N/A   Clear
12:51 PM 69.1 °F - 37.0 °F 31% 30.07 in 10.0 mi Variable 3.5 mph - N/A   Scattered Clouds
1:51 PM 72.0 °F - 36.0 °F 27% 30.04 in 10.0 mi South 8.1 mph - N/A   Partly Cloudy
2:51 PM 73.9 °F - 34.0 °F 23% 30.06 in 10.0 mi South 8.1 mph - N/A   Clear
3:51 PM 73.9 °F - 30.0 °F 20% 30.05 in 10.0 mi SSW 9.2 mph - N/A   Clear
4:51 PM 75.0 °F - 25.0 °F 16% 30.03 in 10.0 mi SSW 4.6 mph 18.4 mph N/A   Clear
5:51 PM 75.0 °F - 23.0 °F 14% 30.03 in 10.0 mi Calm Calm - N/A   Clear
6:51 PM 73.9 °F - 25.0 °F 16% 30.02 in 10.0 mi SE 3.5 mph - N/A   Clear
7:51 PM 73.9 °F - 28.0 °F 18% 30.01 in 10.0 mi West 5.8 mph - N/A   Clear
8:51 PM 69.1 °F - 32.0 °F 25% 30.02 in 10.0 mi WNW 5.8 mph - N/A   Clear
9:51 PM 66.0 °F - 37.9 °F 36% 30.02 in 10.0 mi North 8.1 mph - N/A   Clear
10:51 PM 63.0 °F - 42.1 °F 46% 30.03 in 10.0 mi NNW 6.9 mph - N/A   Clear
11:51 PM 61.0 °F - 44.1 °F 54% 30.02 in 10.0 mi North 9.2 mph - N/A   Clear